This is the latest recevied weather packets stored in our database for station/object W3BRL. If no packets are shown the sender has not sent any weather packets the latest 10 day(s).
| Time | Temp. | Humidity | Pressure | Rain* | Wind** | Luminosity | Snow |
|---|---|---|---|---|---|---|---|
| 1777062987 | 27.22° C | 30% | 1005.6 hPa | 0 mm | - | 429 W/m² | - |
| 1777062684 | 27.22° C | 30% | 1005.7 hPa | 0 mm | - | 499 W/m² | - |
| 1777062382 | 26.67° C | 30% | 1005.7 hPa | 0 mm | - | 508 W/m² | - |
| 1777062080 | 27.22° C | 30% | 1005.7 hPa | 0 mm | - | 380 W/m² | - |
| 1777061775 | 26.67° C | 30% | 1005.7 hPa | 0 mm | - | 463 W/m² | - |
| 1777061472 | 26.11° C | 31% | 1005.9 hPa | 0 mm | - | 509 W/m² | - |
| 1777061168 | 26.67° C | 30% | 1005.8 hPa | 0 mm | - | 196 W/m² | - |
| 1777060863 | 27.22° C | 30% | 1006 hPa | 0 mm | - | 530 W/m² | - |
| 1777060558 | 26.67° C | 30% | 1006 hPa | 0 mm | - | 540 W/m² | - |
| 1777060255 | 26.67° C | 32% | 1006.1 hPa | 0 mm | - | 456 W/m² | - |
| 1777059950 | 26.67° C | 31% | 1006.3 hPa | 0 mm | - | 521 W/m² | - |
| 1777059646 | 26.67° C | 31% | 1006.1 hPa | 0 mm | - | 539 W/m² | - |
| 1777059344 | 27.22° C | 29% | 1006 hPa | 0 mm | - | 508 W/m² | - |
| 1777059040 | 27.22° C | 30% | 1006.1 hPa | 0 mm | - | 659 W/m² | - |
| 1777058739 | 26.67° C | 31% | 1006.1 hPa | 0 mm | - | 547 W/m² | - |
| 1777058435 | 27.22° C | 31% | 1006.1 hPa | 0 mm | - | 605 W/m² | - |
| 1777058132 | 26.67° C | 32% | 1006.3 hPa | 0 mm | - | 591 W/m² | - |
| 1777057832 | 26.67° C | 32% | 1006.2 hPa | 0 mm | - | 658 W/m² | - |
| 1777057527 | 26.67° C | 32% | 1006.2 hPa | 0 mm | - | 773 W/m² | - |
| 1777057224 | 26.67° C | 33% | 1006.3 hPa | 0 mm | - | 597 W/m² | - |
| 1777056920 | 26.67° C | 33% | 1006.3 hPa | 0 mm | - | 178 W/m² | - |
* Rain latest hour (hover to see other rain measurements)
** Current wind speed in m/s (hover to see current wind gust speed)